Find Starlink 32171

NORAD ID: 60332 Int'l Des: 2024-136 Owner: SPXS Country: US Constellation: starlink operational
LEOCIRCULAR

現在のビュー

3D地球を読み込み中...

About Starlink 32171

Starlink 32171 (NORAD 60332) is a starlink constellation satellite (v2 mini) launched Aug 2, 2024 by SPXS of US. It operates in LEO, CIRCULAR orbit with a mass of 730.00 kg.

次回通過

Passes for default location (London). Set your location on the main map for personalized predictions.

高度履歴

Loading altitude history...

軌道要素

1 60332U 24136D 26235.79025528 .00001381 00000-0 56253-4 0 9994
2 60332 53.1594 18.4339 0000886 72.3768 287.7330 15.31692165115260
Epoch: Aug 23, 2026 • Age: 16 hours

現在のステータス

高度 475.3 km
遠地点 / 近地点 N/A
速度 7.63 km/s
衛星直下点 46.32°N, 4.33°E
打ち上げ日 Aug 2, 2024
運用期間 2 years
タイプ internet

技術仕様

分類 Payload
質量 730.00 kg
乾燥質量 700.00 kg
総質量 730.00 kg
長さ 0.30 m
直径 4.10 m
スパン 29.00 m
形状 Box + pan
製造者 SPXS
バスタイプ Starlink V2M
フェーズステータス In Orbit
所有者/国 SPXS/US

Most Searched